Location: Altoona
(40.5167°N, 78.4000°W)
Time: 01:23:31
(UTC-04:00)

Daily predictions for brighter satellites

Satellite Brightness Start Highest point End
(mag) Time Altitude Azimuth Time Altitude Azimuth Time Altitude Azimuth
USA 234 3.6 00:00:36 10° NE 00:07:03 63° NW 00:13:27 10° WSW
Cosmos 1000 Rocket 4.4 00:01:41 10° N 00:07:55 76° W 00:08:34 69° SW
Cosmos 2082 Rocket 3.4 00:03:45 10° NW 00:08:33 29° WSW 00:08:58 29° WSW
Lacrosse 5 rocket 4.0 00:13:03 11° NE 00:13:03 11° NE 00:13:14 10° NE
Meteor 2-4 Rocket 3.8 00:04:49 10° N 00:09:56 63° ENE 00:09:56 63° ENE
Cosmos 2239 Rocket 4.4 00:12:07 70° SW 00:12:50 80° W 00:19:12 10° N
Meteor 2-15 Rocket 4.5 00:10:16 10° N 00:16:23 64° E 00:16:28 64° E
Meteor 1-11 Rocket 3.9 00:17:27 67° WSW 00:17:50 69° W 00:23:37 10° N
Meteor 2-14 Rocket 4.3 00:20:08 86° SE 00:20:16 87° E 00:26:26 10° N
Cosmos 1302 Rocket 4.3 00:21:05 63° WNW 00:21:05 63° WNW 00:26:17 10° NNE
Meteor 2-15 4.3 00:18:01 10° N 00:24:10 87° E 00:24:13 86° ESE
Gbstr 26 Del rocket 4.3 00:24:10 10° NW 00:27:04 36° NW 00:27:04 36° NW
H-2A R/B 3.9 00:35:41 10° NNE 00:38:33 37° NNE 00:38:33 37° NNE
ISS 0.1 00:44:52 10° NW 00:46:27 13° N 00:48:01 10° NNE
Terra 4.4 00:47:55 10° W 00:47:55 10° W 00:48:30 10° W
Cosmos 1605 Rocket 4.0 00:47:50 77° WSW 00:48:01 78° W 00:54:28 10° N
Cosmos 2285 Rocket 4.1 00:51:55 64° W 00:52:25 66° WNW 00:58:48 10° NNE
Cosmos 2369 Rocket 2.4 00:57:32 64° NW 00:57:32 64° NW 01:02:53 10° NNE
MOS 1-B Rocket 4.0 00:58:33 77° E 00:58:38 77° ENE 01:05:19 10° N
Cosmos 1153 Rocket 4.4 01:04:09 83° WNW 01:04:09 83° WNW 01:10:30 10° N
CZ-2C R/B 4.1 01:04:53 35° ENE 01:04:53 35° ENE 01:08:54 10° N
Cosmos 2123 Rocket 4.5 00:58:45 10° NNW 01:04:44 48° W 01:04:44 48° W
Cosmos 2173 Rocket 4.3 01:05:19 57° E 01:05:19 57° E 01:11:17 10° NNE
ALOS 2 4.2 01:10:19 31° NW 01:10:19 31° NW 01:12:51 10° NNW
Lacrosse 5 2.8 01:09:48 43° NW 01:10:02 43° NW 01:14:54 10° NE
CZ-2C R/B 3.2 01:06:33 10° NNE 01:10:38 50° NE 01:10:38 50° NE
NOSS 3-1 (A) 4.1 01:12:09 10° NW 01:19:41 59° WSW 01:19:56 59° SW
Cosmos 968 Rocket 4.2 01:18:38 10° N 01:23:08 50° NE 01:23:08 50° NE
Cosmos 44 Rocket 4.3 01:25:08 10° NNW 01:29:43 44° NE 01:29:43 44° NE
Cosmos 1943 Rocket 2.4 01:37:33 66° NNW 01:37:33 66° NNW 01:42:31 10° NNE
Cosmos 1818 4.0 01:38:10 60° NNW 01:38:10 60° NNW 01:43:05 10° NNE
ATLAS 2AS CENTAUR R/B 3.0 01:33:05 10° NNW 01:41:15 83° NE 01:42:50 61° SE
Cosmos 2098 Rocket 4.5 01:41:51 53° ESE 01:42:26 55° E 01:49:41 10° NNE
Lacrosse 5 rocket 3.9 01:48:44 14° NW 01:49:12 14° NNW 01:51:19 10° N
SL-08 R/B 4.4 01:58:38 87° SSW 01:58:44 89° W 02:05:11 10° N
Cosmos 1777 Rocket 4.3 01:58:03 10° NNW 02:02:36 63° NNE 02:02:36 63° NNE
Cosmos 2058 Rocket 4.2 02:08:25 40° NE 02:08:25 40° NE 02:11:30 10° NNE
Cosmos 44 4.2 02:05:08 10° NNW 02:10:08 46° NE 02:10:31 45° ENE
ISS -0.1 02:22:05 10° NNW 02:23:57 14° NNE 02:25:48 10° NE
BREEZE-M DEB (TANK) 3.8 02:12:03 10° WNW 02:26:00 66° NNE 02:28:17 28° E
Cosmos 2233 Rocket 3.8 02:27:50 73° SE 02:28:16 77° E 02:34:24 10° N
Meteor 1-21 4.3 02:23:05 10° NNW 02:28:11 64° WNW 02:28:11 64° WNW
ATLAS CENTAUR R/B 3.4 02:43:06 26° ESE 02:43:06 26° ESE 02:46:56 10° ENE
SeaSat 1 2.8 02:44:11 53° NW 02:44:11 53° NW 02:48:07 10° NNW
Meteor 2-17 Rocket 4.3 02:45:29 73° SW 02:46:03 82° W 02:52:12 10° N
Meteor 1-15 Rocket 4.1 02:45:49 79° SW 02:46:10 84° W 02:52:05 10° N
Meteor 2-9 Rocket 4.2 02:47:36 72° WSW 02:47:53 73° W 02:53:44 10° N
CZ-2C R/B 4.5 02:48:11 10° NNW 02:51:32 17° WNW 02:52:09 17° WNW
Cosmos 2219 4.1 02:46:33 10° NW 02:50:27 35° WNW 02:50:27 35° WNW
IRS-P3 4.0 02:49:06 10° NNE 02:54:28 79° ESE 02:54:49 75° SSE
Cosmos 2227 Rocket 2.6 02:50:35 10° NNW 02:56:13 59° ENE 02:58:37 33° SE
Meteor 2-5 Rocket 4.5 02:50:35 10° N 02:56:17 51° ENE 02:58:46 32° SE
Uosat 12 SS-18 rocket 4.3 02:53:38 10° NNW 02:58:22 90° NE 02:58:25 88° SE
Cosmos 1570 Rocket 4.5 02:58:55 49° WNW 02:59:07 49° WNW 03:04:19 10° N
Cosmos 1898 Rocket 4.2 02:56:44 10° N 03:01:58 51° ENE 03:04:20 30° SE
Cosmos 2278 3.5 03:12:02 67° SSW 03:12:51 88° WNW 03:18:33 10° NNE
Cosmos 220 Rocket 4.3 03:09:24 10° NNW 03:13:43 61° ENE 03:14:06 58° E
Cosmos 2369 3.6 03:13:13 65° S 03:14:06 83° ESE 03:19:48 10° NNE
Cosmos 1937 Rocket 4.3 03:09:57 10° N 03:14:57 47° ENE 03:18:26 19° SE
Cosmos 2228 4.2 03:15:46 32° NW 03:15:46 32° NW 03:18:58 10° N
Geosat 3.9 03:10:19 10° NNE 03:15:23 77° ESE 03:15:57 67° S
Cosmos 2297 Rocket 2.5 03:12:07 10° NNW 03:17:44 63° ENE 03:21:33 21° SE
Resurs 1-4 Rocket 3.5 03:15:25 10° NE 03:20:00 30° E 03:22:29 21° SE
USA 161 3.6 03:21:36 27° NE 03:21:36 27° NE 03:23:32 10° N
AQUA 3.6 03:16:14 10° N 03:21:01 83° WNW 03:21:22 75° SW
Cosmos 1943 Rocket 4.5 03:19:24 10° WNW 03:21:40 12° NW 03:23:57 10° NNW
NPP 3.6 03:18:11 10° N 03:23:34 68° WNW 03:24:27 57° SW
ADEOS 3.6 03:19:27 10° NNE 03:24:41 70° ESE 03:25:56 51° SSE
Cosmos 2034 Rocket 4.0 03:23:22 41° S 03:25:39 75° E 03:31:51 10° N
Cosmos 405 Rocket 2.8 03:22:44 10° N 03:26:39 80° NNE 03:26:39 80° NNE
ARIANE 5 R/B 3.3 03:23:01 10° NNE 03:27:57 46° E 03:29:52 32° SSE
SL-16 R/B 3.2 03:24:58 10° SE 03:30:51 53° ENE 03:36:49 10° N
ATLAS 2AS CENTAUR R/B 4.3 03:25:42 10° WNW 03:30:12 21° W 03:30:12 21° W
Milstar 3 Cent rocket 3.7 03:36:28 22° SSE 03:36:28 22° SSE 03:40:42 10° ESE
Nadezhda 4 Rocket 4.4 03:31:27 10° N 03:37:34 62° E 03:42:20 17° SSE
BREEZE-M DEB (TANK) 3.4 03:38:17 36° WSW 03:40:25 68° NNW 03:43:21 10° NE
Meteor 1-24 Rocket 4.0 03:36:57 10° N 03:42:41 71° E 03:46:45 21° SSE
Spot 4 Rocket 3.9 03:38:27 10° NNE 03:43:39 88° WNW 03:45:14 47° SSW
IRAS Rocket 4.4 03:39:28 10° N 03:44:59 59° WNW 03:46:41 42° SW
UNKNOWN OBJECT B 4.5 03:42:10 10° NE 03:45:33 28° E 03:47:12 20° SE
Cosmos 1812 Rocket 4.3 03:45:32 38° W 03:45:39 38° WNW 03:49:50 10° N
SL-08 R/B 4.0 03:48:23 36° W 03:48:23 36° W 03:52:23 10° NNW
ERS-2 2.4 03:47:33 10° N 03:51:12 52° WNW 03:51:12 52° WNW
SL-24 R/B 4.3 03:48:50 29° SSE 03:51:26 84° ENE 03:56:00 10° N
OE (NEXTSAT) 4.3 03:53:26 81° SSE 03:53:26 81° SSE 03:57:05 10° ENE
IRS-1D 3.5 03:49:04 10° NNE 03:54:02 75° ESE 03:56:09 35° S
Cosmos 1814 Rocket 4.1 03:53:05 43° SW 03:54:43 66° WNW 04:00:04 10° NNE
Cosmos 2298 Rocket 4.3 03:49:44 10° NNW 03:54:48 47° WSW 03:55:45 42° SW
SAR-Lupe-3 4.3 03:54:57 79° WSW 03:55:00 79° W 03:58:30 10° NNW
Cosmos 1953 3.8 03:54:24 19° SE 03:56:40 34° E 04:00:22 10° NNE
EO 1 Del DPAF 3.9 03:54:44 21° SE 03:57:05 54° ENE 04:00:53 10° N
GPS 2-04 Rocket1 3.4 03:57:56 36° SSE 03:57:56 36° SSE 04:00:59 10° ESE
SME Rocket 4.1 03:53:44 22° SSE 03:57:33 85° WSW 04:05:54 10° NNW
ISS -2.2 03:57:51 10° NW 04:01:01 45° NNE 04:04:09 10° ESE
Cosmos 1441 Rocket 3.7 03:59:06 10° N 04:03:05 62° E 04:05:35 21° SSE
Cosmos 1656 3.7 04:03:16 36° SW 04:05:37 68° WNW 04:11:18 10° NNE
Cosmos 1707 3.5 04:03:52 10° NNW 04:07:17 34° W 04:07:17 34° W
UNK 3.7 04:09:14 24° S 04:12:05 79° WSW 04:16:47 10° NNW
Cosmos 1634 Rocket 4.3 04:07:48 15° S 04:12:56 67° E 04:19:11 10° NNE
NOSS 7 (H) 4.3 04:15:21 52° S 04:15:58 72° ESE 04:19:16 10° NE
CZ-2D R/B 2.1 04:11:49 10° NNE 04:17:19 83° WNW 04:20:34 25° SSW
Okean 3 Rocket 4.4 04:16:03 10° NNW 04:19:57 32° W 04:20:36 30° WSW
Cosmos 990 Rocket 4.0 04:15:25 10° NNW 04:20:36 61° WSW 04:24:59 14° S
ATLAS CENTAUR R/B 2.5 04:19:27 27° WSW 04:21:44 43° NW 04:26:30 10° NNE
CZ-2D R/B 3.9 04:18:56 10° NNE 04:23:15 62° E 04:26:27 18° S
Cosmos 1092 Rocket 4.0 04:20:21 10° N 04:26:38 75° W 04:32:56 10° S
In-Cosmos 22 4.1 04:21:50 10° N 04:27:08 80° E 04:32:26 10° SSE
Cosmos 1697 Rocket 2.8 04:24:08 27° SW 04:27:11 61° WNW 04:32:50 10° NNE
Cosmos 1544 3.9 04:31:09 13° SSE 04:34:17 48° E 04:37:49 10° NNE
Cosmos 1980 Rocket 2.2 04:31:22 22° SSW 04:35:09 86° WNW 04:40:51 10° NNE
Cosmos 2227 Rocket 3.5 04:35:55 10° WNW 04:39:43 19° W 04:40:20 18° WSW
Cosmos 836 Rocket 4.5 04:36:44 21° SSW 04:40:12 72° WNW 04:45:29 10° NNE
GEOS 3 Rocket 3.7 04:37:03 10° SSE 04:42:07 52° WSW 04:47:12 10° NW
Cosmos 1674 3.8 04:42:32 10° N 04:46:10 44° E 04:49:46 10° SSE
Cosmos 2322 Rocket 3.1 04:41:04 10° S 04:46:23 45° ESE 04:51:43 10° NE
Abrixas 3.3 04:46:01 10° NW 04:49:02 54° NNE 04:52:03 10° ESE
Cosmos 1125 Rocket 3.4 04:44:57 10° NNW 04:50:11 81° WSW 04:55:22 10° SSE
CZ-3 Stage 3 4.4 04:09:27 10° W 04:53:19 54° SSW 05:00:19 10° SE
Cosmos 841 Rocket 4.2 04:49:56 19° SW 04:53:19 40° WNW 04:58:17 10° N
Cosmos 1076 Rocket 4.5 04:49:56 10° NNW 04:53:39 28° W 04:55:56 18° SW
Cosmos 1500 Rocket 3.6 04:50:04 10° N 04:54:29 82° E 04:58:51 10° S
NOSS 3-4 (A) 4.2 04:48:23 10° NW 04:54:52 40° WSW 05:01:41 10° S
NOSS 3-4 (C) 4.2 04:48:28 10° NW 04:55:01 41° WSW 05:01:52 10° S
MTI 4.5 04:55:26 18° SSW 04:57:22 34° W 05:00:24 10° NNW
Cosmos 1470 3.1 04:55:10 10° S 04:59:04 68° E 05:03:01 10° NNE
Cosmos 1743 Rocket 3.6 04:54:57 10° NNW 04:59:13 59° W 05:03:30 10° S
PSLV R/B 3.7 04:55:53 10° N 04:59:44 72° WNW 05:03:12 12° SSW
Resurs 1-4 Rocket 3.0 04:55:09 10° N 04:59:49 33° WNW 05:03:34 15° SW
CZ-4B R/B 3.0 04:56:25 10° NNE 05:00:22 68° E 05:04:06 10° S
Cosmos 2297 Rocket 3.6 04:57:36 10° WNW 05:01:11 17° W 05:03:14 14° SW
Okean O Rocket 1.6 04:57:47 10° N 05:02:10 72° WNW 05:06:33 10° SSW
MOZ.5/SAFIR/RUBIN 5/SL-8 3.7 04:59:28 10° S 05:04:11 77° WSW 05:08:54 10° NNW
Cosmos 1437 3.1 05:01:25 10° NNW 05:04:38 45° W 05:07:49 10° S
ARIANE 5 R/B 4.0 05:02:54 10° NNW 05:06:45 22° WNW 05:10:12 12° WSW
Cosmos 2279 Rocket 4.0 05:02:02 10° S 05:08:18 79° W 05:14:35 10° N
SL-16 R/B 3.6 05:10:04 11° SW 05:14:44 24° W 05:19:36 10° NW
Cosmos 2360 4.4 05:10:13 11° SW 05:15:32 58° WNW 05:21:12 10° NNE
SL-16 R/B 2.3 05:13:19 10° SSW 05:18:57 81° ESE 05:24:40 10° NNE
Cosmos-2242 4.3 05:16:24 12° SW 05:19:34 25° WNW 05:23:07 10° NNW
UNKNOWN OBJECT B 4.4 05:17:02 10° NNW 05:19:55 20° WNW 05:22:43 10° WSW
Cosmos 2221 3.4 05:16:19 10° S 05:20:27 51° E 05:24:38 10° NNE
Cosmos 332 Rocket 4.0 05:17:30 10° SSW 05:22:14 58° WNW 05:27:01 10° NNE
Cosmos 1655 Rocket 4.3 05:19:40 10° NNW 05:25:49 50° W 05:31:55 10° SSW
Thor Agena Rocket 3.5 05:22:21 10° S 05:27:19 61° WSW 05:32:20 10° NNW
Cosmos 540 Rocket 3.9 05:25:19 10° SW 05:30:18 47° WNW 05:35:18 10° N
Cosmos 1953 4.1 05:30:36 10° WSW 05:33:15 17° WNW 05:35:55 10° NNW
Cosmos 2266 Rocket 4.3 05:29:38 10° N 05:35:48 76° E 05:42:01 10° SSE
Cosmos 2263 Rocket 2.9 05:30:51 10° NNW 05:36:23 60° ENE 05:41:51 10° SE
GPS 2-04 Rocket1 3.4 05:33:18 10° WSW 05:36:53 34° S 05:40:18 10° SE
ISS -1.9 05:34:47 10° W 05:37:13 20° SW 05:39:40 10° S
CZ-4B R/B 3.6 05:33:05 10° N 05:38:23 47° WNW 05:43:33 10° SW
PSLV R/B 3.5 05:35:34 10° NNE 05:39:49 86° WNW 05:44:04 10° SSW
Cosmos 1328 3.8 05:36:11 10° NNW 05:40:14 71° W 05:44:14 10° S
